Location: Caltech
(34.1382°N, 118.1253°W)
Time: 09:05:28
(UTC-08:00)

FO-29 - Visible Passes

Search period start: 11 December 2017 00:00
Search period end: 21 December 2017 00:00
Orbit: 801 x 1321 km, 98.5° (Epoch: 10 December)

Date Brightness Start Highest point End Pass type
(mag) Time Alt. Az. Time Alt. Az. Time Alt. Az.
11 Dec 12.7 05:36:19 10° ENE 05:36:41 10° NE 05:37:03 10° NE visible
12 Dec 12.0 06:19:47 10° ESE 06:25:43 25° ENE 06:31:47 10° NNE visible
14 Dec 12.1 06:15:05 10° ESE 06:20:54 24° ENE 06:26:47 10° NNE visible
16 Dec 12.2 06:10:26 10° ESE 06:16:04 23° ENE 06:21:44 10° NNE visible
18 Dec 12.2 06:05:49 10° ESE 06:11:15 21° ENE 06:16:41 10° NNE visible
20 Dec 12.3 06:01:14 10° ESE 06:06:26 20° ENE 06:11:36 10° NNE visible
